Location: Luxembourg
(49.6117°N, 6.1300°E)
Time: 05:01:26
(UTC+01:00)

ISS - Pass Details

Date: 02 February 2019
Orbit: 403 x 411 km, 51.6° (Epoch: 21 February)

Event Time Altitude Azimuth Distance (km) Brightness Sun altitude
Rises 18:01:36 0° 271° (W) 2,331 1.6 -5.3°
Reaches altitude 10° 18:03:42 10° 275° (W) 1,473 0.3 -5.6°
Maximum altitude 18:06:58 59° 356° (N) 479 -3.5 -6.1°
Drops below altitude 10° 18:10:16 10° 77° (ENE) 1,479 -1.7 -6.6°
Enters shadow 18:10:31 - 78° (ENE) 1,586 -1.5 -6.6°
